Regional Weather Roundup
Issued by NWS

Home | Current Version | Previous Version | Text Only | Print | Product List | Glossary Off
Versions: 1 2 3 4 5 6 7 8 9 10 11 12 13 14 15 16 17 18 19 20 21 22 23 24 25 26 27 28 29 30 31 32 33 34 35 36 37 38 39 40 41 42 43 44 45 46 47 48 49 50

000
ASUS43 KDMX 051708
RWRIA

WEATHER ROUNDUP FOR IOWA
NATIONAL WEATHER SERVICE DES MOINES IA
1200 PM CDT THU MAY 05 2016

NOTE: "FAIR" INDICATES FEW OR NO CLOUDS BELOW 12,000 FEET WITH NO
SIGNIFICANT WEATHER AND/OR OBSTRUCTIONS TO VISIBILITY.

* - THESE STATIONS ARE NOT NWS STATIONS...THUS NOT UNDER NWS
QUALITY CONTROL.  THEY ALSO DO NOT REPORT WEATHER SUCH
AS PRECIPITATION OR FOG.

IAZ001>003-012>014-020>022-031>034-043>046-051800-
   NORTHWEST IOWA

CITY           SKY/WX    TMP DP  RH WIND       PRES   REMARKS
CARROLL *      SUNNY     66  34  30 CALM      30.09S
CHEROKEE *     SUNNY     66  37  34 S3        30.08F
DENISON *      SUNNY     68  36  30 CALM      30.07S
LE MARS *      SUNNY     70  41  35 VRB5      30.08S
ORANGE CITY *  SUNNY     68  37  32 CALM      30.07F
SHELDON *      SUNNY     70  34  26 VRB6      30.05F
SIOUX CITY     SUNNY     73  40  30 CALM      30.07S
SPENCER        SUNNY     68  33  27 SW5       30.07F
STORM LAKE *   SUNNY     66  32  28 W3        30.09S
$$

IAZ055>058-069>071-079>083-090>094-051800-
   SOUTHWEST IOWA

CITY           SKY/WX    TMP DP  RH WIND       PRES   REMARKS
ATLANTIC *     SUNNY     66  34  30 E6        30.10S
AUDUBON *      SUNNY     66  28  24 CALM      30.11R
CLARINDA *       N/A     66  37  34 MISG      30.12S
COUNCIL BLFS * SUNNY     68  37  32 CALM      30.10S
CRESTON *      SUNNY     64  34  32 NE5       30.12S
HARLAN  *      SUNNY     68  34  28 S3        30.13S
LAMONI         SUNNY     64  37  36 VRB6      30.10R
RED OAK *      SUNNY     68  34  28 CALM      30.11R
SHENANDOAH *   SUNNY     68  37  32 VRB3      30.11S
$$

IAZ047>049-059>061-072>074-084-051800-
   CENTRAL IOWA

CITY           SKY/WX    TMP DP  RH WIND       PRES   REMARKS
AMES           SUNNY     61  36  39 SE5       30.10F
ANKENY *       SUNNY     63  32  31 CALM      30.10F
BOONE *        SUNNY     63  30  29 CALM      30.09S
CHARITON *     MOSUNNY   61  36  39 NW7       30.10S
DES MOINES     MOSUNNY   64  32  30 CALM      30.10F
GRINNELL*      CLOUDY    59  32  36 N9        30.10F
KNOXVILLE *    PTSUNNY   59  32  36 N7        30.09S
MARSHALLTOWN   CLOUDY    60  33  36 NE6       30.09F
NEWTON *       CLOUDY    61  34  36 VRB6      30.09F
PERRY *          N/A     63  30  29 CALM      30.10S
$$

IAZ004>006-015-016-023>025-035-036-051800-
   NORTH CENTRAL IOWA

CITY           SKY/WX    TMP DP  RH WIND       PRES   REMARKS
ALGONA *       SUNNY     66  34  30 VRB5      30.08F
CLARION *      SUNNY     64  27  24 CALM      30.09F
ESTHERVILLE    SUNNY     65  34  31 S12       30.06F
FORT DODGE *   SUNNY     64  37  36 CALM      30.10F
MASON CITY     MOSUNNY   63  32  31 SW6       30.10S
FOREST CITY *  SUNNY     63  28  27 CALM      30.08F
WEBSTER CITY * SUNNY     64  30  27 VRB5      30.07F
IOWA FALLS *     N/A     61  32  33 CALM      30.10F
$$

IAZ007>011-017>019-026>030-037>042-050>054-066-051800-
   NORTHEAST IOWA

CITY           SKY/WX    TMP DP  RH WIND       PRES   REMARKS
CEDAR RAPIDS   SUNNY     59  40  49 NW5       30.07F
CHARLES CITY * PTSUNNY   57  32  38 VRB3      30.09F
CLINTON *      SUNNY     57  42  57 NE8       30.07F
DECORAH *      SUNNY     59  32  36 CALM      30.07S
DUBUQUE        SUNNY     57  38  48 N6        30.07S
MONTICELLO *   SUNNY     61  39  44 NW9       30.07F
OELWEIN *      SUNNY     59  36  41 VRB5G13   30.09S
WATERLOO       CLOUDY    57  34  41 N5        30.09F
$$

IAZ064-065-067-068-078-051800-
   EAST CENTRAL IOWA

CITY           SKY/WX    TMP DP  RH WIND       PRES   REMARKS
DAVENPORT      SUNNY     58  38  47 N7        30.08S
IOWA CITY      SUNNY     60  40  47 NE6       30.09F
MT. PLEASANT * SUNNY     61  39  44 N8        30.08F
MUSCATINE *    SUNNY     59  39  47 VRB3G13   30.08F
QUAD CITIES    SUNNY     59  38  45 NE6       30.06F
$$

IAZ062-063-075>077-085>089-095>099-051800-
   SOUTHEAST IOWA

CITY           SKY/WX    TMP DP  RH WIND       PRES   REMARKS
BURLINGTON     SUNNY     59  43  55 N10       30.07S
FAIRFIELD *    SUNNY     59  37  44 N9G16     30.08F
FORT MADISON * SUNNY     57  39  51 NE6       30.08S
KEOKUK *       SUNNY     59  41  51 VRB7G15   30.07S
OSKALOOSA *      N/A     59  32  36 N9        30.10S
OTTUMWA        SUNNY     61  35  37 N8        30.10R
WASHINGTON *   SUNNY     59  39  47 N7G13     30.10S
$$

ABBREVIATIONS USED IN REMARKS
   TC - TEMPERATURES IN CELSIUS
  WCI - WIND CHILL INDEX
   HX - HEAT INDEX
  VSB - VISIBILITY
$$




USA.gov is the U.S. government's official web portal to all federal, state and local government web resources and services.